H1 CPF  1  isr 2018  7 30 22  7111  irnss1i     NONE    
H2  1803501 3309    43286 2018  7 30 23 59 42 2018  8  6 23 44 42   900 1 1  0 0 0
H9
10 0 58329  86382.000000  0      23455208.967      30026958.482     -17968105.552
10 0 58330    882.000000  0      23127469.632      29936460.222     -18545999.999
10 0 58330   1782.000000  0      22790456.843      29889348.138     -19043848.007
10 0 58330   2682.000000  0      22449970.138      29886505.960     -19459529.979
10 0 58330   3582.000000  0      22111874.614      29928051.469     -19791282.968
10 0 58330   4482.000000  0      21781999.873      30013334.527     -20037707.793
10 0 58330   5382.000000  0      21466039.621      30140948.347     -20197774.543
10 0 58330   6282.000000  0      21169453.660      30308753.800     -20270826.465
10 0 58330   7182.000000  0      20897373.951      30513916.334     -20256582.213
10 0 58330   8082.000000  0      20654516.363      30752954.839     -20155136.484
10 0 58330   8982.000000  0      20445099.616      31021801.621     -19966959.020
10 0 58330   9882.000000  0      20272772.813      31315872.427     -19692892.015
10 0 58330  10782.000000  0      20140552.779      31630145.321     -19334145.934
10 0 58330  11682.000000  0      20050772.289      31959247.032     -18892293.773
10 0 58330  12582.000000  0      20005040.051      32297545.295     -18369263.806
10 0 58330  13482.000000  0      20004213.123      32639245.597     -17767330.839
10 0 58330  14382.000000  0      20048382.219      32978490.651     -17089106.031
10 0 58330  15282.000000  0      20136870.149      33309460.912     -16337525.329
10 0 58330  16182.000000  0      20268243.401      33626474.397     -15515836.567
10 0 58330  17082.000000  0      20440336.664      33924084.108     -14627585.292
10 0 58330  17982.000000  0      20650289.844      34197171.399     -13676599.384
10 0 58330  18882.000000  0      20894596.962      34441033.688     -12666972.531
10 0 58330  19782.000000  0      21169166.052      34651465.016     -11603046.633
10 0 58330  20682.000000  0      21469389.059      34824828.098     -10489393.213
10 0 58330  21582.000000  0      21790220.527      34958116.620      -9330793.912
10 0 58330  22482.000000  0      22126263.724      35049006.752      -8132220.136
10 0 58330  23382.000000  0      22471862.744      35095896.967      -6898811.962
10 0 58330  24282.000000  0      22821199.003      35097935.532      -5635856.367
10 0 58330  25182.000000  0      23168390.489      35055035.179      -4348764.874
10 0 58330  26082.000000  0      23507592.075      34967874.716      -3043050.710
10 0 58330  26982.000000  0      23833095.174      34837887.563      -1724305.562
10 0 58330  27882.000000  0      24139425.062      34667237.401       -398176.012
10 0 58330  28782.000000  0      24421434.184      34458781.353        929660.231
10 0 58330  29682.000000  0      24674389.882      34216021.327       2253518.233
10 0 58330  30582.000000  0      24894055.022      33943044.346       3567729.768
10 0 58330  31482.000000  0      25076760.179      33644452.884       4866667.181
10 0 58330  32382.000000  0      25219466.123      33325286.390       6144767.101
10 0 58330  33282.000000  0      25319815.550      32990935.343       7396553.901
10 0 58330  34182.000000  0      25376173.181      32647049.285       8616662.809
10 0 58330  35082.000000  0      25387653.527      32299440.423       9799862.594
10 0 58330  35982.000000  0      25354135.861      31953984.412      10941077.716
10 0 58330  36882.000000  0      25276266.128      31616520.032      12035409.867
10 0 58330  37782.000000  0      25155445.746      31292749.457      13078158.802
10 0 58330  38682.000000  0      24993807.508      30988140.827      14064842.379
10 0 58330  39582.000000  0      24794178.956      30707834.787      14991215.733
10 0 58330  40482.000000  0      24560033.874      30456556.580      15853289.489
10 0 58330  41382.000000  0      24295432.704      30238535.219      16647346.951
10 0 58330  42282.000000  0      24004952.906      30057431.108      17369960.188
10 0 58330  43182.000000  0      23693610.444      29916273.363      18018004.935
10 0 58330  44082.000000  0      23366773.722      29817407.914      18588674.266
10 0 58330  44982.000000  0      23030071.466      29762457.287      19079490.950
10 0 58330  45882.000000  0      22689296.093      29752292.757      19488318.459
10 0 58330  46782.000000  0      22350304.239      29787019.373      19813370.548
10 0 58330  47682.000000  0      22018916.151      29865974.113      20053219.385
10 0 58330  48582.000000  0      21700815.650      29987737.223      20206802.169
10 0 58330  49482.000000  0      21401452.410      30150156.550      20273426.214
10 0 58330  50382.000000  0      21125948.211      30350384.467      20252772.462
10 0 58330  51282.000000  0      20879008.796      30584926.773      20144897.398
10 0 58330  52182.000000  0      20664842.845      30849702.734      19950233.358
10 0 58330  53082.000000  0      20487089.482      31140115.245      19669587.217
10 0 58330  53982.000000  0      20348755.551      31451129.912      19304137.447
10 0 58330  54882.000000  0      20252163.777      31777361.711      18855429.553
10 0 58330  55782.000000  0      20198912.697      32113167.727      18325369.911
10 0 58330  56682.000000  0      20189849.074      32452744.380      17716217.993
10 0 58330  57582.000000  0      20225053.278      32790227.474      17030577.045
10 0 58330  58482.000000  0      20303837.912      33119793.333      16271383.219
10 0 58330  59382.000000  0      20424759.694      33435759.283      15441893.216
10 0 58330  60282.000000  0      20585644.433      33732681.740      14545670.488
10 0 58330  61182.000000  0      20783624.648      34005450.206      13586570.042
10 0 58330  62082.000000  0      21015189.213      34249375.544      12568721.924
10 0 58330  62982.000000  0      21276244.166      34460270.994      11496513.443
10 0 58330  63882.000000  0      21562183.636      34634524.523      10374570.210
10 0 58330  64782.000000  0      21867969.672      34769161.255       9207736.081
10 0 58330  65682.000000  0      22188219.590      34861894.882       8001052.087
10 0 58330  66582.000000  0      22517299.321      34911167.160       6759734.447
10 0 58330  67482.000000  0      22849421.162      34916174.805       5489151.764
10 0 58330  68382.000000  0      23178744.212      34876883.311       4194801.505
10 0 58330  69282.000000  0      23499475.758      34794027.437       2882285.874
10 0 58330  70182.000000  0      23805971.858      34669098.371       1557287.193
10 0 58330  71082.000000  0      24092835.354      34504317.763        225542.901
10 0 58330  71982.000000  0      24355009.633      34302599.102      -1107179.711
10 0 58330  72882.000000  0      24587866.479      34067497.083      -2435108.907
10 0 58330  73782.000000  0      24787286.512      33803145.866      -3752493.940
10 0 58330  74682.000000  0      24949730.800      33514187.278      -5053630.394
10 0 58330  75582.000000  0      25072302.401      33205690.226      -6332885.307
10 0 58330  76482.000000  0      25152796.769      32883062.713      -7584721.962
10 0 58330  77382.000000  0      25189740.153      32551957.985      -8803724.234
10 0 58330  78282.000000  0      25182415.309      32218176.452      -9984620.366
10 0 58330  79182.000000  0      25130874.102      31887565.085     -11122306.078
10 0 58330  80082.000000  0      25035936.768      31565916.030     -12211866.889
10 0 58330  80982.000000  0      24899177.857      31258866.215     -13248599.568
10 0 58330  81882.000000  0      24722899.119      30971799.672     -14228032.594
10 0 58330  82782.000000  0      24510089.801      30709754.286     -15145945.549
10 0 58330  83682.000000  0      24264375.048      30477334.576     -15998387.348
10 0 58330  84582.000000  0      23989953.325      30278632.012     -16781693.229
10 0 58330  85482.000000  0      23691523.934      30117154.255     -17492500.435
10 0 58330  86382.000000  0      23374205.903      29995764.529     -18127762.519
10 0 58331    882.000000  0      23043449.653      29916632.162     -18684762.209
10 0 58331   1782.000000  0      22704942.975      29881195.151     -19161122.790
10 0 58331   2682.000000  0      22364512.950      29890135.376     -19554817.956
10 0 58331   3582.000000  0      22028025.508      29943366.888     -19864180.096
10 0 58331   4482.000000  0      21701284.363      30040037.449     -20087906.988
10 0 58331   5382.000000  0      21389931.072      30178543.290     -20225066.880
10 0 58331   6282.000000  0      21099347.924      30356556.815     -20275101.947
10 0 58331   7182.000000  0      20834565.348      30571066.763     -20237830.116
10 0 58331   8082.000000  0      20600175.414      30818430.116     -20113445.266
10 0 58331   8982.000000  0      20400252.913      31094434.854     -19902515.812
10 0 58331   9882.000000  0      20238285.365      31394372.462     -19605981.682
10 0 58331  10782.000000  0      20117113.144      31713118.929     -19225149.722
10 0 58331  11682.000000  0      20038880.735      32045222.852     -18761687.551
10 0 58331  12582.000000  0      20004999.960      32384999.105     -18217615.899
10 0 58331  13482.000000  0      20016125.767      32726626.488     -17595299.483
10 0 58331  14382.000000  0      20072145.008      33064247.649     -16897436.446
10 0 58331  15282.000000  0      20172178.371      33392069.590     -16127046.428
10 0 58331  16182.000000  0      20314595.424      33704463.028     -15287457.324
10 0 58331  17082.000000  0      20497042.506      33996058.901     -14382290.775
10 0 58331  17982.000000  0      20716482.969      34261840.394     -13415446.479
10 0 58331  18882.000000  0      20969249.080      34497228.896     -12391085.373
10 0 58331  19782.000000  0      21251104.690      34698162.435     -11313611.763
10 0 58331  20682.000000  0      21557317.588      34861165.253     -10187654.489
99